{"data":{"norad_id":67061,"epoch":"2026-09-20T13:13:15.945600Z","epoch_age_seconds":104241,"freshness":"FRESH","line1":"1 67061U 25295C   26263.55087900 -.00000118  00000+0  13512-4 0  9992","line2":"2 67061  50.0012  43.5979 0000742  80.7651 279.3305 13.29327070 38180","mean_motion":13.2932707,"eccentricity":7.42e-5,"inclination_deg":50.0012,"raan_deg":43.5979,"arg_perigee_deg":80.7651,"mean_anomaly_deg":279.3305,"bstar":1.3512e-5,"rev_number":3818,"period_min":108.32548531491,"perigee_km":1148.7439965207,"apogee_km":1149.8610685473,"semimajor_km":7527.439532534,"source":"CELESTRAK","updated_at":"2026-09-21T09:00:16.408824Z"}}